(464445) = 2002 CP60 = 2014 UH219 = 2016 BF36

Discovered at Socorro on 2002-02-06 by LINEAR.

Orbit

Orbit type: Main Belt

Note: WebGL enabled browser required.

epoch2023-09-13.0
epoch JD2460200.5
perihelion date2020-07-21.95599
perihelion JD2459052.45599
argument of perihelion (°)147.71685
ascending node (°)335.57322
inclination (°)14.60456
eccentricity0.0686666
perihelion distance (AU)2.5891247
Tisserand w.r.t. Jupiter3.3
ΔV w.r.t. Earth (km/sec)11.1
semimajor axis (AU)2.7800191
mean anomaly (°)244.11289
mean daily motion (°/day)0.21263370
aphelion distance (AU)2.971
period (years)4.64
P-vector [x]-0.55601449
P-vector [y]0.69893985
P-vector [z]0.44981215
Q-vector [x]-0.82460636
Q-vector [y]-0.39597305
Q-vector [z]-0.40401696
absolute magnitude16.48
phase slope0.15
uncertainty0
referenceMPO 780161
observations used201
oppositions9
arc length (days)7949
first opposition used2002
last opposition used2023
residual rms (arc-secs)0.66
perturbers coarse indicatorM-v
perturbers precise indicator003Ek
first observation date used2002-02-06.0
last observation date used2023-11-12.0
computer nameMPCLINUX
Minimum Orbit Intersection Distances (in AU)
for orbit epoch: 2460200.5, reference: E2023-VN0
Mercury2.25291
Venus1.87363
Earth1.61137
Mars0.93823
Jupiter2.06318
Saturn6.54569
Uranus15.8141
Neptune27.0315

Observations

204 total observations over interval: 2002 02 06.31284 – 2023 11 12.257174
These data are available for download (format description).

Date (UT) J2000 RA J2000 Dec Magn Location Ref
2002 02 06.31284 08 55 38.72 +27 21 42.6 19.6   704 – Lincoln Laboratory ETS, New Mexico MPS 50207
2002 02 06.34282 08 55 36.63 +27 21 39.7 20.1   704 – Lincoln Laboratory ETS, New Mexico MPS 50207
2002 02 06.35781 08 55 35.56 +27 21 38.0 19.9   704 – Lincoln Laboratory ETS, New Mexico MPS 50207
2002 02 06.37300 08 55 34.47 +27 21 35.8 20.0   704 – Lincoln Laboratory ETS, New Mexico MPS 50207
2002 02 10.22983 08 51 19.04 +27 12 57.6 19.8   704 – Lincoln Laboratory ETS, New Mexico MPS 50207
2002 02 10.24397 08 51 18.09 +27 12 55.4 20.2   704 – Lincoln Laboratory ETS, New Mexico MPS 50207
2002 02 10.26088 08 51 16.89 +27 12 53.6 20.8   704 – Lincoln Laboratory ETS, New Mexico MPS 50207
2002 02 10.27516 08 51 16.04 +27 12 50.7 20.1   704 – Lincoln Laboratory ETS, New Mexico MPS 50207
2002 02 10.29086 08 51 14.99 +27 12 48.7 20.3   704 – Lincoln Laboratory ETS, New Mexico MPS 50207
2006 12 27.45701 11 43 15.45 +02 34 37.5 20.5 V G96 – Mt. Lemmon Survey MPS 682739
2006 12 27.46161 11 43 15.52 +02 34 35.7 21.2 V G96 – Mt. Lemmon Survey MPS 682739
2006 12 27.46615 11 43 15.67 +02 34 33.4 21.5 V G96 – Mt. Lemmon Survey MPS 682739
2006 12 27.47069 11 43 15.81 +02 34 31.7 21.4 V G96 – Mt. Lemmon Survey MPS 682739
2007 03 15.41255 11 11 18.56 -01 41 16.8 20.1 V 703 – Catalina Sky Survey MPS 682739
2007 03 15.41914 11 11 18.20 -01 41 15.6 20.3 V 703 – Catalina Sky Survey MPS 682739
2007 03 15.42576 11 11 17.73 -01 41 16.3 20.5 V 703 – Catalina Sky Survey MPS 682739
2007 03 15.43238 11 11 17.34 -01 41 15.7 19.5 V 703 – Catalina Sky Survey MPS 682739
2007 04 11.31488 10 49 57.00 -01 21 26.3   291 – LPL/Spacewatch II MPS 682739
2007 04 11.33263 10 49 56.43 -01 21 25.9   291 – LPL/Spacewatch II MPS 682739
2007 04 11.34030 10 49 56.19 -01 21 26.1   291 – LPL/Spacewatch II MPS 682739
2009 09 16.28765 23 27 21.74 +04 16 04.2 20.1 V G96 – Mt. Lemmon Survey MPS 682739
2009 09 16.29452 23 27 21.34 +04 16 03.5 20.4 V G96 – Mt. Lemmon Survey MPS 682739
2009 09 16.30168 23 27 20.91 +04 16 03.0 19.9 V G96 – Mt. Lemmon Survey MPS 682739
2009 09 16.30863 23 27 20.52 +04 16 02.1 20.4 V G96 – Mt. Lemmon Survey MPS 682739
2014 10 25.31353 01 10 08.69 +27 03 26.7 20.6 r G45 – Space Surveillance Telescope, Atom Site MPS 553470
2014 10 25.31474 01 10 08.58 +27 03 26.7 20.4 r G45 – Space Surveillance Telescope, Atom Site MPS 553470
2014 10 25.32593 01 10 07.99 +27 03 23.7 20.3 r G45 – Space Surveillance Telescope, Atom Site MPS 553470
2014 10 25.33614 01 10 07.32 +27 03 21.9 20.7 r G45 – Space Surveillance Telescope, Atom Site MPS 553470
2014 10 25.33708 01 10 07.26 +27 03 22.2 20.5 r G45 – Space Surveillance Telescope, Atom Site MPS 553470
2014 10 25.34725 01 10 06.63 +27 03 19.9 20.4 r G45 – Space Surveillance Telescope, Atom Site MPS 553470
2014 10 25.35837 01 10 05.98 +27 03 18.2 21.3 r G45 – Space Surveillance Telescope, Atom Site MPS 553470
2014 10 25.35932 01 10 05.96 +27 03 17.9 20.6 r G45 – Space Surveillance Telescope, Atom Site MPS 553470
2014 10 26.31306 01 09 09.97 +27 00 05.3 20.4 r G45 – Space Surveillance Telescope, Atom Site MPS 553470
2014 10 26.33440 01 09 08.68 +27 00 00.2 20.4 r G45 – Space Surveillance Telescope, Atom Site MPS 553470
2014 10 26.33534 01 09 08.61 +27 00 00.8 20.5 r G45 – Space Surveillance Telescope, Atom Site MPS 553470
2014 10 26.34552 01 09 07.98 +26 59 58.3 20.1 r G45 – Space Surveillance Telescope, Atom Site MPS 553470
2014 10 26.35661 01 09 07.31 +26 59 55.7 20.3 r G45 – Space Surveillance Telescope, Atom Site MPS 553470
2016 01 08.42003 10 06 12.922 +20 58 46.31 20.4 w F51 – Pan-STARRS 1, Haleakala MPS 682739
2016 01 08.43453 10 06 12.480 +20 58 46.24 20.6 w F51 – Pan-STARRS 1, Haleakala MPS 682739
2016 01 08.44905 10 06 12.023 +20 58 46.35 20.3 w F51 – Pan-STARRS 1, Haleakala MPS 682739
2016 01 08.46363 10 06 11.575 +20 58 46.34 20.3 w F51 – Pan-STARRS 1, Haleakala MPS 682739
2016 01 14.45422 10 02 43.059 +20 59 06.77 20.2 w F51 – Pan-STARRS 1, Haleakala MPS 682739
2016 01 14.46740 10 02 42.507 +20 59 07.02 20.1 w F51 – Pan-STARRS 1, Haleakala MPS 682739
2016 01 14.48056 10 02 41.957 +20 59 07.20 20.2 w F51 – Pan-STARRS 1, Haleakala MPS 682739
2016 01 14.49368 10 02 41.403 +20 59 07.41 20.2 w F51 – Pan-STARRS 1, Haleakala MPS 682739
2016 01 29.53774 09 49 52.795 +21 02 27.84 19.7 r F51 – Pan-STARRS 1, Haleakala MPS 675494
2016 01 29.55049 09 49 52.002 +21 02 27.83 19.9 r F51 – Pan-STARRS 1, Haleakala MPS 675494
2016 01 29.56323 09 49 51.195 +21 02 28.04 19.9 r F51 – Pan-STARRS 1, Haleakala MPS 675494
2016 01 31.37126 09 48 01.045 +21 02 31.33 19.8 w F51 – Pan-STARRS 1, Haleakala MPS 675494
2016 01 31.40093 09 47 59.150 +21 02 31.51 20.0 w F51 – Pan-STARRS 1, Haleakala MPS 675494
2016 01 31.41577 09 47 58.201 +21 02 31.54 19.9 w F51 – Pan-STARRS 1, Haleakala MPS 675494
2016 02 03.37151 09 44 51.876 +21 02 13.76 19.9 w F51 – Pan-STARRS 1, Haleakala MPS 675494
2016 02 03.39646 09 44 50.229 +21 02 13.64 19.9 w F51 – Pan-STARRS 1, Haleakala MPS 675494
2016 02 03.40867 09 44 49.423 +21 02 13.54 19.9 w F51 – Pan-STARRS 1, Haleakala MPS 675494
2016 02 05.54359 09 42 31.087 +21 01 38.65 19.7 w F51 – Pan-STARRS 1, Haleakala MPS 679374
2016 02 05.55608 09 42 30.249 +21 01 38.28 20.2 w F51 – Pan-STARRS 1, Haleakala MPS 679374
2016 02 05.56856 09 42 29.415 +21 01 37.98 19.7 w F51 – Pan-STARRS 1, Haleakala MPS 679374
2016 02 05.58115 09 42 28.578 +21 01 37.59 19.9 w F51 – Pan-STARRS 1, Haleakala MPS 679374
2016 02 09.35866 09 38 20.19 +20 59 41.5 19.5 V 703 – Catalina Sky Survey MPS 679374
2016 02 09.36778 09 38 19.66 +20 59 41.7 20.0 V 703 – Catalina Sky Survey MPS 679374
2016 02 09.37691 09 38 19.00 +20 59 40.0   703 – Catalina Sky Survey MPS 679374
2016 02 09.38603 09 38 18.29 +20 59 39.8   703 – Catalina Sky Survey MPS 679374
2016 02 10.37434 09 37 12.94 +20 58 57.3 19.8 V G96 – Mt. Lemmon Survey MPS 679374
2016 02 10.38007 09 37 12.55 +20 58 57.1 19.7 V G96 – Mt. Lemmon Survey MPS 679374
2016 02 10.38580 09 37 12.17 +20 58 56.9 19.7 V G96 – Mt. Lemmon Survey MPS 679374
2016 02 10.39153 09 37 11.77 +20 58 56.9 19.7 V G96 – Mt. Lemmon Survey MPS 679374
2016 02 11.18638 09 36 19.47 +20 58 17.3 19.8 r G45 – Space Surveillance Telescope, Atom Site MPS 682739
2016 02 11.19160 09 36 19.10 +20 58 17.3 19.8 r G45 – Space Surveillance Telescope, Atom Site MPS 682739
2016 02 11.19669 09 36 18.78 +20 58 16.7 20.0 r G45 – Space Surveillance Telescope, Atom Site MPS 682739
2016 02 11.20157 09 36 18.44 +20 58 16.4 19.7 r G45 – Space Surveillance Telescope, Atom Site MPS 682739
2016 02 14.15961 09 33 03.18 +20 55 18.1 20.7 r G45 – Space Surveillance Telescope, Atom Site MPS 682739
2016 02 14.16449 09 33 02.83 +20 55 17.8 20.2 r G45 – Space Surveillance Telescope, Atom Site MPS 682739
2016 02 14.16937 09 33 02.51 +20 55 17.8 20.7 r G45 – Space Surveillance Telescope, Atom Site MPS 682739
2016 02 14.17419 09 33 02.17 +20 55 17.1 20.5 r G45 – Space Surveillance Telescope, Atom Site MPS 682739
2016 02 14.18837 09 33 01.18 +20 55 16.5 20.3 r G45 – Space Surveillance Telescope, Atom Site MPS 682739
2016 02 14.20245 09 33 00.26 +20 55 15.7 20.8 r G45 – Space Surveillance Telescope, Atom Site MPS 682739
2016 02 15.31565 09 31 47.13 +20 53 55.0 19.8 R V30 – Heaven on Earth Observatory, Mayhill MPS 682739
2016 02 15.33677 09 31 45.77 +20 53 53.5 19.6 R V30 – Heaven on Earth Observatory, Mayhill MPS 682739
2016 02 15.36102 09 31 44.06 +20 53 51.6 19.5 R V30 – Heaven on Earth Observatory, Mayhill MPS 682739
2016 02 15.38223 09 31 42.65 +20 53 49.3 19.8 R V30 – Heaven on Earth Observatory, Mayhill MPS 682739
2016 02 16.40147 09 30 36.21 +20 52 27.5 19.9 R V30 – Heaven on Earth Observatory, Mayhill MPS 682739
2016 02 16.42221 09 30 34.84 +20 52 25.3 20.1 R V30 – Heaven on Earth Observatory, Mayhill MPS 682739
2016 02 16.44291 09 30 33.54 +20 52 23.6 19.6 R V30 – Heaven on Earth Observatory, Mayhill MPS 682739
2016 02 17.15850 09 29 47.74 +20 51 21.4 19.1 r G45 – Space Surveillance Telescope, Atom Site MPS 682739
2016 02 17.16339 09 29 47.45 +20 51 21.0 20.1 r G45 – Space Surveillance Telescope, Atom Site MPS 682739
2016 02 17.16824 09 29 47.14 +20 51 20.6 20.5 r G45 – Space Surveillance Telescope, Atom Site MPS 682739
2016 02 17.17804 09 29 46.49 +20 51 19.1 19.8 r G45 – Space Surveillance Telescope, Atom Site MPS 682739
2016 02 27.45672 09 19 24.204 +20 30 08.18 20.0 r F51 – Pan-STARRS 1, Haleakala MPS 686890
2016 02 27.46890 09 19 23.484 +20 30 06.06 19.9 r F51 – Pan-STARRS 1, Haleakala MPS 686890
